Wind_Speed
22 23 22 22 22 22 22 21 19 17 15 14 14 13 15 14 13 14 14 11 11 11 12 12 12 10 13 14 13 15 14 13 14 14 5 4 7 8 8 6 9 6 9
22 21 21 21 21 23 23 23 20 19 17 16 15 12 13 13 13 13 13 14 15 14 14 15 15 14 12 12 14 15 16 14 14 13 14 12 10 8 9 9 9 9 8
19 21 20 21 22 22 22 22 22 20 19 18 16 14 14 12 13 14 15 17 18 20 16 14 15 14 15 16 16 15 15 11 14 16 16 14 13 8 10 10 10 9 9
15 19 20 21 21 21 21 21 21 21 20 19 18 18 15 14 15 16 16 16 16 16 15 15 16 17 18 17 17 16 16 17 17 16 18 15 13 12 11 12 11 10 10
15 15 16 18 18 18 19 20 21 22 22 21 20 18 17 17 17 16 15 14 16 15 16 16 17 18 20 20 18 17 15 16 18 14 15 14 13 12 13 11 12 11 8
12 11 11 12 15 17 18 19 19 20 22 21 21 19 18 18 19 20 19 17 18 15 16 18 20 19 21 22 22 24 23 21 20 17 15 13 14 11 12 12 12 12 12
10 8 7 10 12 13 14 17 18 19 19 21 21 20 21 20 20 20 21 20 20 18 19 20 20 19 17 19 20 20 22 26 26 21 16 15 13 11 10 10 12 11 9
5 5 5 4 6 10 14 16 17 16 18 19 20 20 19 20 21 22 24 21 20 21 20 21 20 19 18 18 19 19 17 11 9 9 12 12 7 7 7 8 7 7 9
1 2 7 8 9 8 7 8 10 11 13 13 14 14 15 15 18 20 22 18 19 20 19 19 19 17 17 21 16 14 14 13 16 13 13 14 16 14 12 8 12 11 6
3 6 8 7 10 10 10 8 7 8 7 4 5 5 5 7 14 17 18 14 17 17 17 16 21 19 17 13 12 10 13 14 18 14 9 4 1 3 4 5 5 5 3
5 6 5 7 11 11 10 8 7 9 9 8 10 11 8 5 8 11 10 11 15 15 12 11 9 10 8 9 9 8 10 13 11 8 8 6 2 1 2 2 3 2 2
4 2 4 4 5 8 8 10 11 11 11 11 9 6 5 4 7 9 11 12 11 11 10 10 8 6 5 5 4 5 5 6 10 11 7 5 6 6 6 7 8 5 2
4 5 7 8 7 8 7 5 4 2 4 2 2 1 2 4 4 5 5 6 9 7 9 8 7 6 4 4 5 5 6 6 9 8 7 6 8 8 9 12 13 12 11
10 11 10 9 9 9 8 7 6 4 2 3 2 3 4 3 2 3 3 1 1 5 10 8 7 9 9 13 13 12 11 12 9 11 9 8 9 11 11 13 11 10 11
13 11 11 9 8 8 8 7 6 5 5 4 4 3 5 3 4 6 5 5 8 10 11 9 8 9 10 10 10 10 10 9 11 12 12 10 11 12 12 9 2 1 3
12 9 7 7 7 8 8 11 10 8 6 6 6 5 5 5 7 8 8 9 10 7 3 6 6 5 5 6 8 7 8 7 8 11 11 12 10 10 9 8 6 5 6
10 9 8 8 8 8 7 7 8 8 6 6 6 5 5 7 6 7 7 6 5 6 4 5 5 5 5 5 4 4 5 5 7 7 8 8 8 6 5 5 6 5 4
8 10 8 9 9 8 6 5 6 5 5 4 5 5 6 7 6 6 6 5 4 5 5 5 5 5 5 5 5 7 9 8 8 7 7 6 5 4 5 4 3 3 4
7 6 7 8 8 8 6 5 5 5 5 6 6 4 4 5 5 5 5 3 4 4 5 4 4 4 5 5 5 6 6 6 6 6 5 5 5 4 1 2 3 1 3
6 8 8 7 7 7 6 7 7 7 6 5 5 6 6 6 5 5 4 4 4 5 5 5 5 4 5 5 5 5 5 6 5 5 5 5 4 3 4 4 3 4 6
8 8 5 7 7 8 7 6 6 6 6 5 6 4 6 1 3 4 4 4 4 5 5 5 5 5 4 4 4 4 5 5 5 4 5 5 4 4 3 3 4 5 3
6 8 8 7 7 6 5 5 5 5 5 6 7 5 5 2 2 3 3 4 4 3 3 3 3 3 4 4 5 5 5 4 4 4 4 4 4 3 3 3 3 3 4
8 8 7 6 6 5 6 4 4 3 4 4 5 6 5 3 2 2 3 4 5 5 4 4 4 4 3 4 4 4 4 4 4 4 4 4 3 4 3 3 3 4 4
9 9 10 9 8 8 6 5 5 5 5 7 7 7 6 5 5 5 5 5 5 6 6 6 5 6 6 6 6 6 5 5 5 5 4 3 3 4 4 2 2 2 4
10 11 9 10 11 12 9 9 7 9 9 8 7 7 7 7 7 7 7 7 7 7 7 7 7 7 8 9 8 7 8 9 8 7 6 5 4 4 4 3 3 3 4
9 10 11 11 11 11 10 10 10 8 11 11 10 10 9 9 10 10 10 11 11 11 10 10 10 11 11 12 11 11 11 9 9 10 8 7 7 8 7 8 6 7 4
Wind_Direction
208 210 208 211 214 216 222 227 231 235 241 242 239 241 239 236 238 238 238 251 239 245 255 254 253 259 261 263 256 261 265 269 274 284 289 253 265 258 245 240 240 227 271
211 211 215 214 213 216 218 224 233 237 234 238 240 247 250 247 229 234 245 251 242 246 253 252 254 258 252 262 264 265 274 281 279 277 282 282 267 259 246 243 239 248 238
211 209 214 219 216 219 222 225 228 233 233 231 240 239 239 240 247 250 250 254 258 249 249 255 255 257 257 262 271 271 263 250 260 260 277 271 273 258 255 252 246 249 240
214 215 214 220 224 225 224 223 229 230 229 226 230 242 243 245 246 254 256 256 258 250 248 254 259 260 260 262 259 259 260 263 257 260 271 267 268 265 253 266 255 242 240
211 213 219 226 229 231 228 223 222 227 231 232 231 233 235 243 245 241 249 256 264 259 261 260 261 263 259 257 255 262 267 263 273 276 265 270 262 245 258 270 272 273 237
196 211 225 228 227 226 229 226 223 222 225 229 233 238 243 244 246 244 242 250 258 260 262 266 269 270 270 266 260 258 257 260 266 268 264 268 269 259 259 259 268 273 273
171 191 207 227 236 237 234 229 224 222 223 227 234 240 247 248 246 246 250 255 261 263 266 268 269 269 267 265 268 274 264 258 258 256 266 272 277 275 266 262 259 266 272
158 172 202 214 232 237 234 232 229 224 224 229 233 236 241 247 252 255 258 258 258 258 258 259 261 267 272 262 265 267 264 256 246 242 267 272 275 266 264 265 259 247 241
138 193 243 234 227 217 210 226 222 224 218 221 235 240 242 245 252 256 256 252 254 253 254 256 259 258 260 265 266 262 265 238 234 251 258 266 271 266 259 255 244 228 209
226 212 232 231 233 234 227 216 236 250 247 243 246 231 251 265 259 266 270 260 257 256 252 242 244 243 254 279 290 278 266 237 248 260 241 225 195 307 232 222 262 283 170
243 237 220 225 217 214 226 205 258 252 247 244 244 260 267 286 288 279 276 271 259 259 250 222 240 255 258 262 263 250 250 253 235 190 170 178 175 137 78 49 356 244 268
254 199 170 158 197 211 222 239 252 248 246 216 219 202 226 259 288 285 270 251 254 248 218 219 241 250 236 224 210 231 244 228 196 184 173 163 143 114 95 83 80 64 121
168 132 129 135 120 108 100 115 109 149 174 161 192 182 41 33 305 292 266 256 234 198 204 189 161 159 160 150 150 132 114 126 140 140 152 147 122 107 103 97 82 74 67
139 133 126 120 109 97 97 77 78 78 86 93 121 135 101 73 55 49 47 111 202 139 117 112 118 123 130 113 105 110 125 133 140 140 150 142 125 120 115 103 97 91 74
139 126 120 112 108 103 104 87 75 98 103 105 110 106 91 93 62 73 84 105 114 116 112 105 108 111 110 105 105 112 115 121 135 140 143 143 129 126 116 106 89 272 225
135 135 134 136 132 124 116 102 107 109 109 109 107 113 109 109 109 113 120 126 130 121 109 125 121 117 108 113 113 113 107 120 135 138 147 146 143 149 141 137 143 162 164
138 141 136 130 129 128 131 140 131 105 101 104 116 127 123 124 115 113 118 111 110 118 138 138 140 145 149 132 130 131 125 124 132 137 148 150 153 156 174 177 181 199 171
133 140 140 139 137 134 145 151 150 164 158 130 112 111 113 118 114 116 122 121 136 141 151 152 156 152 148 139 130 136 129 133 142 143 146 151 163 175 199 197 185 218 197
142 148 144 139 138 146 152 148 147 144 150 153 145 120 126 113 111 108 128 236 148 142 144 135 125 125 125 132 135 139 140 146 157 163 162 170 167 182 199 195 149 199 187
148 155 146 150 147 146 157 158 162 155 148 137 145 127 154 157 166 149 143 138 133 124 125 127 127 134 143 148 152 152 153 161 170 171 164 167 176 201 194 200 211 192 213
149 152 174 164 150 145 147 140 136 137 134 139 125 144 165 175 142 145 148 143 142 130 130 128 138 146 149 157 164 178 181 176 183 181 180 187 194 199 208 206 221 226 238
158 153 165 156 144 156 151 154 159 151 151 154 136 149 170 206 161 165 172 181 174 176 161 168 174 166 163 175 179 183 185 182 181 190 192 190 190 192 195 211 231 242 243
174 173 170 168 171 144 183 193 184 186 180 178 174 161 176 190 176 189 185 199 193 199 201 214 216 213 198 195 186 185 183 179 180 183 183 190 194 205 218 234 242 244 248
188 195 192 192 193 201 206 212 224 233 250 218 214 212 216 214 215 207 212 208 209 214 215 218 223 220 203 198 187 183 176 163 162 174 182 192 194 203 223 227 236 276 283
210 207 207 208 204 212 231 236 245 234 216 228 235 233 232 232 235 233 227 225 222 221 219 219 213 204 199 197 190 180 184 188 169 180 181 196 213 204 227 258 298 301 308
210 212 221 226 228 238 242 242 243 236 235 235 234 238 241 244 242 240 235 232 229 226 225 220 218 211 203 205 206 205 220 213 211 206 213 230 235 236 235 251 246 262 262
Height
808 813 816 820 824 828 831 835 837 840 842 844 846 847 848 849 851 853 854 854 855 856 856 856 856 856 856 854 853 853 852 851 849 845 845 847 850 849 849 848 848 849 847
803 808 813 816 820 823 826 829 833 835 837 840 842 843 846 846 848 850 851 851 852 852 853 854 853 853 853 854 853 852 850 849 849 847 846 846 846 847 847 846 846 847 848
799 802 808 812 814 817 821 825 827 830 832 834 837 840 841 843 845 846 848 848 849 849 850 850 851 851 851 850 849 847 845 846 848 846 842 842 842 844 844 843 843 843 844
794 799 802 807 809 812 816 819 822 825 827 829 832 835 837 839 840 842 843 843 844 845 845 847 847 846 847 846 846 845 844 844 843 842 839 839 840 841 840 839 839 839 840
793 796 799 803 806 808 811 814 816 819 822 824 827 829 832 834 834 836 838 839 841 841 840 841 841 841 840 841 841 839 840 840 838 837 837 837 836 836 835 834 834 834 835
790 793 797 800 802 805 807 809 811 813 816 819 821 823 825 827 828 830 833 834 835 836 836 836 836 835 835 834 833 833 835 835 835 834 833 833 831 832 832 831 830 830 829
787 791 795 798 800 802 803 805 805 808 811 814 816 818 819 821 823 824 826 829 829 830 830 831 830 829 829 828 827 828 827 827 828 830 829 829 829 828 828 828 829 829 829
788 790 794 797 799 800 799 801 802 803 804 807 809 811 812 815 817 819 820 822 823 823 824 825 825 825 824 823 823 823 822 823 822 824 826 826 826 826 826 826 826 827 827
787 789 794 796 798 798 798 799 799 799 801 802 804 806 807 809 810 813 814 817 817 817 818 819 819 819 817 818 818 818 818 819 817 819 820 822 823 822 822 822 822 822 822
789 790 792 793 795 796 797 797 797 799 801 801 802 803 803 805 804 806 809 813 812 812 812 811 811 812 811 812 814 815 815 815 814 815 815 815 822 820 819 818 819 819 818
790 789 788 791 792 794 794 793 797 798 798 799 800 801 800 799 800 803 805 807 808 807 807 807 807 808 809 809 808 810 811 811 811 814 817 819 820 819 819 818 819 818 819
787 787 787 789 791 792 791 791 794 795 796 796 799 797 798 796 797 800 803 804 805 805 803 803 804 804 805 805 805 806 806 809 811 814 816 818 818 817 818 818 817 820 821
788 789 788 789 791 790 791 792 793 795 796 797 798 798 794 791 799 799 800 800 802 801 800 802 802 804 804 803 803 804 806 809 811 815 817 819 817 818 819 819 821 823 823
789 790 790 790 790 792 793 795 795 797 798 799 800 800 797 799 801 799 798 800 801 802 801 803 803 804 805 805 804 805 807 808 811 812 817 821 819 817 821 821 823 824 825
789 790 790 792 793 795 796 796 797 800 800 801 801 801 798 802 801 799 801 802 803 804 806 807 808 808 807 808 808 808 809 811 810 812 817 819 819 821 822 821 823 824 825
789 791 793 793 795 796 798 798 799 803 803 801 800 803 803 802 802 802 802 805 806 808 809 809 810 812 813 813 812 813 811 815 816 815 817 818 821 823 822 823 825 824 823
789 790 792 794 795 796 799 801 802 805 804 803 803 805 805 804 803 804 805 805 806 808 810 811 812 813 815 814 814 815 816 816 817 818 819 822 821 822 824 823 823 822 821
790 792 793 794 795 796 800 801 800 803 803 806 804 804 804 805 804 804 806 806 809 809 811 812 813 813 814 815 815 816 814 816 818 820 821 822 823 823 823 821 822 822 821
790 792 793 794 795 797 799 799 800 801 803 804 805 805 806 805 805 806 807 807 806 807 808 810 810 813 814 816 817 817 817 817 820 820 819 821 821 822 822 821 822 823 823
790 791 793 794 795 795 797 798 799 798 799 800 802 803 806 806 805 806 807 807 807 806 808 809 810 813 814 815 816 817 817 818 820 819 818 819 820 820 819 820 820 820 822
789 792 792 792 792 794 796 797 797 797 798 800 802 804 804 804 804 804 805 807 807 808 809 810 811 812 813 814 815 816 817 817 818 818 818 818 820 819 819 819 819 820 820
788 790 791 792 794 796 796 797 798 797 798 799 801 804 804 805 803 804 805 806 807 809 810 811 811 811 812 813 814 814 815 816 817 819 819 819 819 819 819 820 819 819 819
788 790 791 792 793 795 797 797 796 795 796 797 798 801 803 802 803 804 805 806 806 808 809 810 811 812 813 813 813 814 814 815 817 818 818 818 818 819 820 819 819 818 818
788 789 790 791 794 794 794 793 794 796 796 797 797 799 799 800 801 802 803 804 806 806 806 808 809 810 811 811 811 813 815 815 816 817 817 818 819 820 819 819 818 818 817
784 786 787 788 789 791 791 792 791 792 793 795 794 795 795 796 797 799 800 801 803 804 804 805 805 808 810 811 812 812 812 815 816 816 817 818 819 819 817 817 817 816 817
781 782 784 784 786 787 787 787 787 788 788 789 790 790 791 792 793 794 795 797 799 800 801 802 803 805 807 809 810 810 811 812 813 814 816 817 816 816 816 817 816 815 814